Lapse_Rate
3.3 3.6 3.9 4.1 4.2 4.3 4.4 4.8 5.0 5.2 5.3 5.3 5.3 5.6 5.8 5.9 6.3 9.2 8.6 8.9 9.2 8.6 7.3 9.4 9.3 9.1 9.0 8.2 8.3 8.2 6.5 6.5 6.5 6.5 6.5 7.1 6.6 7.7 8.0 7.3 7.8 8.0 7.8 8.1 6.2
2.8 3.2 3.3 3.6 3.8 4.0 4.1 4.4 4.6 4.8 4.9 5.0 5.2 5.4 5.6 5.4 9.1 8.7 7.9 8.1 7.9 7.6 8.8 8.7 8.2 8.5 7.9 7.7 7.7 6.8 6.5 6.5 6.5 6.5 6.5 6.8 6.8 7.1 7.0 7.0 7.1 7.6 8.3 7.6 6.1
2.5 2.6 2.8 3.1 3.2 3.5 3.7 4.0 4.1 4.3 4.3 4.6 4.7 5.0 5.2 6.0 8.4 8.5 7.9 8.0 7.6 7.2 9.2 9.2 8.9 8.2 7.3 7.5 7.2 6.8 6.5 6.5 6.7 7.1 7.2 6.8 6.8 7.5 6.8 6.5 7.2 7.2 7.7 6.6 6.1
2.3 2.4 2.5 2.5 2.5 2.8 3.1 3.3 3.5 3.8 4.0 4.1 4.3 4.5 5.1 8.3 6.5 8.9 7.8 7.4 7.2 7.4 8.8 8.7 8.3 7.3 6.7 6.5 7.4 6.5 6.9 6.9 6.9 7.3 7.2 6.6 7.3 6.8 7.1 6.9 7.5 8.1 8.2 7.0 6.1
2.1 1.9 1.9 1.9 1.9 2.1 2.4 2.7 3.1 3.4 3.6 3.6 3.9 4.4 6.9 8.0 8.0 8.0 7.1 7.9 8.4 8.6 8.7 8.3 7.7 7.3 6.5 6.7 6.9 6.5 6.5 7.1 7.3 7.3 7.3 7.4 6.8 6.8 7.0 7.7 8.2 8.2 8.0 6.9 7.0
2.1 1.6 1.4 1.6 1.6 1.7 2.0 2.2 2.8 3.1 3.0 3.1 3.5 4.0 8.6 6.9 8.2 8.1 7.8 8.6 8.8 9.2 8.7 8.6 7.9 8.0 7.1 6.8 6.6 6.9 6.8 6.8 7.1 7.2 7.3 6.7 6.8 7.1 7.3 8.0 7.8 7.9 7.4 7.0 7.1
1.7 1.2 1.0 1.1 1.4 1.4 1.6 1.9 2.2 2.5 2.4 2.6 3.4 6.7 8.3 7.8 8.0 8.0 8.0 8.4 8.2 9.1 8.4 8.8 8.4 7.8 7.6 6.5 7.5 7.0 6.5 6.5 6.7 7.0 6.6 7.2 6.5 6.5 7.6 7.9 7.5 7.4 7.3 7.1 7.4
1.3 0.7 0.6 0.6 1.1 1.2 1.1 1.4 1.5 1.6 2.0 2.5 3.5 7.6 7.7 6.8 7.4 9.4 9.4 9.2 8.6 8.8 9.1 9.2 8.6 7.5 7.5 7.7 7.0 6.5 6.5 6.5 6.5 6.6 6.9 6.8 6.5 6.5 7.7 7.5 7.2 7.3 7.6 7.5 7.7
1.1 0.3 0.3 0.2 0.8 0.9 1.0 1.0 1.2 1.5 2.6 2.7 6.3 8.1 7.3 5.3 8.2 8.3 8.5 8.8 9.0 8.9 9.1 9.2 8.6 7.4 7.0 6.5 6.5 6.5 6.5 6.5 6.5 6.7 6.5 6.5 6.5 6.5 7.6 7.4 7.2 7.4 7.3 7.4 7.3
0.8 0.2 0.2 0.2 0.5 0.6 0.7 1.1 2.4 2.8 4.8 6.1 7.4 7.6 7.1 7.7 7.7 7.7 8.5 8.6 8.5 8.4 8.0 7.8 7.3 6.5 6.5 6.5 6.5 6.5 6.5 6.5 6.5 6.5 6.5 6.5 6.5 6.5 7.1 7.2 7.1 7.3 7.2 7.2 7.1
0.6 0.4 0.2 0.4 0.6 0.5 2.4 5.7 7.4 7.8 6.8 7.6 7.7 7.6 8.0 6.9 6.6 8.2 7.9 8.7 8.5 7.6 6.5 7.0 6.5 6.5 6.5 6.5 6.5 6.5 6.5 6.5 6.5 6.5 6.5 6.5 6.5 6.5 6.8 7.0 6.9 7.1 7.2 7.0 6.8
0.4 0.1 0.1 0.2 0.6 1.3 3.4 7.8 5.0 4.6 7.0 6.9 6.9 7.2 7.2 7.4 7.5 8.1 7.8 7.5 7.1 6.5 6.6 6.5 6.5 6.5 6.5 6.5 6.5 6.5 6.5 6.5 6.5 6.5 6.5 6.5 6.5 6.5 6.5 6.7 7.0 7.1 7.1 7.1 6.7
0.4 0.1 0.2 0.2 1.1 4.2 6.2 4.8 4.2 5.2 7.1 7.3 7.8 7.8 8.0 7.3 7.3 7.5 7.7 7.7 6.7 6.5 6.5 6.5 6.5 6.6 6.5 6.5 6.5 6.5 6.5 6.5 6.5 6.5 6.5 6.5 6.5 6.5 6.5 6.9 7.1 7.3 7.5 7.4 7.2
0.5 0.1 -0.0 0.5 4.1 5.4 6.2 4.8 4.7 6.0 6.5 6.5 6.8 7.6 7.8 8.0 6.9 8.1 8.2 7.7 6.7 6.5 6.5 6.5 6.6 6.5 6.5 6.5 6.5 6.5 6.5 6.5 6.5 6.5 6.5 6.5 6.5 6.5 6.5 6.5 6.5 7.0 7.3 7.5 5.7
0.1 -0.1 -0.1 1.3 5.3 7.4 5.0 4.6 5.1 6.2 6.5 6.5 6.8 7.6 8.2 7.2 7.3 7.4 7.9 7.8 6.5 6.5 6.5 6.5 6.5 6.5 6.5 6.5 6.5 6.5 6.5 6.5 6.5 6.5 6.5 6.5 6.5 6.5 6.5 6.5 6.5 6.7 7.1 7.6 6.7
-0.2 -0.5 -0.4 3.5 5.4 4.0 3.8 4.7 5.9 6.5 6.5 6.5 6.8 6.6 6.6 7.0 7.0 7.5 7.5 8.0 7.7 6.5 6.5 6.5 7.0 6.5 6.5 6.5 6.5 6.5 6.5 6.5 6.5 6.5 6.5 6.5 6.5 6.5 6.5 6.5 6.5 6.7 7.1 7.5 7.8
-0.3 -0.9 0.9 3.4 6.1 3.4 4.0 6.7 6.5 6.5 6.5 6.5 6.5 6.5 6.5 6.5 6.5 6.5 6.5 6.5 6.5 6.5 6.5 6.5 6.5 6.5 6.7 6.5 6.5 6.5 6.5 6.5 6.5 6.5 6.5 6.5 6.5 6.5 6.5 6.5 6.5 6.5 7.1 7.6 7.9
-0.5 -1.3 1.0 2.9 3.2 3.2 5.4 6.6 6.5 6.5 6.5 6.5 6.5 6.5 6.5 6.5 6.5 6.5 6.5 6.5 6.5 6.5 6.5 6.5 6.5 6.5 6.5 6.5 6.5 6.5 6.5 6.5 6.5 6.5 6.5 6.5 6.5 6.5 6.5 6.8 7.0 7.1 7.4 7.5 7.7
0.6 4.1 3.7 3.4 2.7 4.2 7.6 6.5 6.5 6.5 6.5 6.5 6.5 6.5 6.5 6.5 6.5 6.5 6.5 6.5 6.5 6.5 6.5 6.5 6.5 6.5 6.5 6.5 6.5 6.5 6.5 6.5 6.5 6.5 6.5 6.5 6.5 6.5 6.5 6.5 6.7 6.9 7.2 7.3 7.6
3.9 4.9 6.3 3.1 3.2 5.7 6.7 6.5 6.5 6.6 6.6 6.5 6.5 6.5 6.5 6.5 6.5 6.5 6.5 6.5 6.5 6.6 6.7 6.5 6.5 6.5 6.5 6.6 6.6 6.5 6.5 6.5 6.5 6.5 6.5 6.5 6.5 6.5 6.5 6.5 6.5 6.5 6.9 7.3 7.6
4.9 7.7 4.3 3.4 4.2 7.7 6.5 6.5 6.5 7.1 7.1 6.5 6.5 6.5 6.5 6.5 6.5 6.5 6.5 6.5 6.5 6.5 6.7 6.5 6.5 6.5 6.5 6.5 6.5 6.5 6.5 6.5 6.5 6.5 6.5 6.5 6.5 6.5 6.5 6.5 6.5 6.6 7.1 7.4 7.7
6.5 6.7 4.2 4.2 6.9 6.9 6.5 6.5 6.3 6.7 7.2 6.6 6.6 6.5 6.5 6.5 6.5 6.5 6.5 6.5 7.0 6.8 6.5 6.5 6.5 6.5 6.5 6.5 6.5 6.5 6.5 6.5 6.5 6.5 6.5 6.5 6.5 6.5 6.5 6.5 6.7 6.9 7.3 7.7 7.9
7.9 7.9 5.0 5.7 6.5 6.5 6.6 6.5 6.8 6.5 6.5 6.5 6.5 6.5 6.5 6.5 6.5 6.5 6.5 6.8 7.1 6.6 6.5 6.5 6.5 6.5 6.5 6.5 6.5 6.5 6.5 6.5 6.5 6.5 6.5 6.5 6.5 6.5 6.6 6.6 7.0 7.0 7.4 7.7 7.9
7.4 6.5 7.6 8.0 7.7 6.6 6.5 6.5 6.5 7.1 6.7 6.9 6.5 6.7 6.5 6.5 6.5 6.5 6.5 6.5 7.0 6.8 6.3 6.6 6.5 6.5 6.5 6.5 6.5 6.5 6.5 6.5 6.5 6.5 6.5 6.5 6.5 6.5 6.5 6.5 6.7 7.1 7.5 7.7 7.8
7.2 7.0 7.4 6.5 6.7 6.6 6.6 6.5 6.5 6.5 6.9 7.0 6.5 6.5 6.5 6.5 6.5 6.5 6.5 6.5 6.7 6.6 6.8 6.5 6.5 6.5 6.5 6.5 6.5 6.5 6.5 6.5 6.5 6.5 6.5 6.5 6.5 6.5 6.5 6.5 6.8 7.3 7.5 7.5 7.6
6.7 7.1 7.8 7.2 7.3 6.7 6.5 6.5 6.5 6.5 6.5 6.5 6.5 6.5 6.5 6.5 6.5 6.5 6.5 6.5 6.5 6.5 6.5 6.5 6.5 6.5 6.5 6.5 6.5 6.5 6.5 6.5 6.5 6.5 6.5 6.5 6.5 6.5 6.8 7.1 7.0 7.2 7.3 7.3 7.5
6.3 6.3 6.6 6.9 6.6 6.5 6.5 6.5 6.5 6.6 6.7 7.0 6.6 6.5 6.5 6.5 7.0 7.0 7.1 6.9 6.6 6.5 6.5 6.5 6.5 6.5 6.5 6.5 6.5 6.5 6.5 6.5 6.5 6.5 6.5 6.5 6.5 6.5 6.5 6.6 6.9 7.1 7.4 7.4 7.6
Wind_Speed
12 12 12 12 12 12 12 11 10 9 9 9 10 12 14 14 15 8 3 9 12 15 11 7 7 8 7 11 4 10 12 14 20 23 15 16 17 14 9 5 8 7 3 15 20
13 13 13 12 12 13 13 13 13 11 11 11 11 13 14 12 10 2 4 11 12 11 9 7 8 8 9 10 5 8 12 18 15 16 14 14 13 17 9 12 10 8 8 22 20
13 14 14 14 13 13 13 13 14 14 14 13 13 14 14 10 8 6 8 10 11 8 8 9 8 8 13 10 9 8 12 14 8 11 10 12 10 13 11 17 14 15 18 19 18
14 14 14 14 14 14 14 13 14 14 15 15 13 13 16 9 7 7 8 8 7 8 7 7 5 7 7 11 10 8 16 12 7 6 11 11 9 11 14 5 5 12 20 18 17
16 16 15 15 15 15 15 14 14 14 15 15 13 10 9 9 6 7 7 6 5 4 4 6 9 7 8 4 8 14 3 14 12 4 12 12 12 13 14 9 1 5 17 18 17
18 17 16 16 15 16 16 16 15 15 15 14 12 8 6 11 3 10 7 4 4 5 2 4 5 6 7 5 7 3 10 7 12 15 11 12 15 13 12 11 4 11 15 16 17
20 18 16 16 16 16 17 17 17 16 17 12 8 5 6 6 4 7 4 4 4 5 3 1 4 5 2 6 6 5 5 6 13 18 13 8 16 19 15 17 10 10 13 16 17
21 20 17 17 16 16 17 18 19 15 14 5 6 4 5 1 3 6 4 4 2 3 5 1 2 4 4 6 4 8 5 2 8 17 16 9 16 17 17 15 12 10 13 15 17
23 21 18 18 19 18 17 18 19 12 3 6 5 4 2 1 2 4 4 5 2 2 4 3 5 6 3 4 1 5 4 10 7 17 14 13 11 11 14 15 15 14 15 12 13
25 22 19 19 19 20 20 16 1 7 4 4 4 5 3 4 1 1 2 5 4 2 4 6 6 6 6 6 3 4 10 7 10 10 19 15 17 6 6 13 16 15 14 12 13
26 23 20 19 20 20 12 3 3 5 4 5 7 5 3 1 3 5 2 5 6 6 3 4 6 6 2 1 5 2 7 9 4 5 10 20 15 16 5 6 11 10 15 11 12
27 26 23 17 18 16 7 3 3 3 6 3 4 5 2 3 4 6 2 4 4 8 4 2 6 5 5 6 7 5 5 8 10 8 8 13 21 16 13 7 10 14 15 12 11
27 26 24 19 11 3 6 4 4 3 4 2 1 5 2 4 4 2 4 5 8 8 7 5 4 7 6 7 9 10 11 11 3 6 10 11 16 19 17 7 6 10 13 14 17
27 27 23 22 4 3 3 5 6 4 3 2 3 2 3 3 3 1 3 3 4 6 5 3 1 4 8 9 8 8 2 8 6 5 7 14 6 17 20 11 9 13 14 14 10
27 27 20 9 4 2 5 5 5 3 3 2 2 3 1 5 6 4 2 4 9 10 5 1 5 5 4 8 5 1 8 9 10 8 5 10 6 11 19 12 10 16 16 15 14
29 27 18 3 1 2 3 5 2 2 4 0 1 2 4 6 3 0 4 4 4 7 8 9 1 3 3 2 6 10 8 5 7 5 3 10 11 8 14 14 13 16 16 18 15
30 23 7 4 1 3 3 2 2 3 1 2 2 3 6 4 3 3 4 6 3 5 5 4 7 1 2 5 5 5 7 2 4 3 3 2 7 8 9 8 13 15 17 16 17
33 14 1 2 2 3 3 2 2 2 3 1 3 8 5 2 4 4 4 7 5 4 8 4 3 6 8 4 4 7 5 4 4 2 4 3 7 5 5 3 2 3 12 12 14
29 2 3 1 4 4 4 1 3 2 3 5 4 4 3 3 4 4 4 4 1 2 3 5 1 2 3 3 3 4 6 2 5 3 4 6 5 5 6 6 6 8 8 12 12
8 5 2 1 3 4 3 5 3 2 1 1 4 1 4 2 4 2 2 3 2 1 2 3 5 2 2 2 7 6 2 3 3 4 4 6 5 3 7 9 7 10 12 12 12
4 5 3 1 2 4 4 5 4 5 6 4 4 4 6 4 4 4 4 2 2 2 3 3 2 2 2 7 5 4 4 6 3 3 5 6 2 3 9 6 7 8 11 13 14
4 4 3 2 3 3 4 4 1 5 4 5 3 6 4 2 4 4 4 2 1 1 2 1 4 6 8 5 1 4 6 5 7 3 4 4 2 1 4 5 7 9 10 12 13
5 5 3 3 5 7 4 4 4 7 7 8 7 8 2 4 4 7 4 3 3 2 3 2 3 5 4 4 3 6 6 7 5 4 9 8 0 3 5 7 10 12 12 12 12
4 4 3 4 5 7 8 10 6 5 5 5 3 5 6 6 10 4 4 3 5 4 1 1 4 7 7 6 3 5 5 7 8 4 7 9 8 8 7 11 12 14 14 14 14
3 4 3 3 5 11 7 6 8 6 7 9 4 13 9 6 5 7 7 4 6 6 4 3 5 2 11 14 9 12 12 9 12 13 6 5 6 6 9 12 12 12 14 14 13
3 4 5 11 11 11 10 10 14 9 7 7 11 7 14 10 10 5 6 6 5 7 4 4 3 3 6 0 6 12 14 14 14 15 15 15 14 3 9 11 11 12 12 13 14
5 2 3 5 11 15 15 15 13 9 10 16 12 10 11 18 14 5 5 1 2 7 9 4 3 2 5 3 10 10 5 11 8 8 12 10 4 11 11 12 14 14 15 15 15
Wind_Direction
340 340 346 346 345 344 344 343 339 342 336 332 332 329 327 326 305 253 335 340 322 329 316 294 268 245 250 242 236 243 240 239 234 238 245 209 207 221 276 160 166 177 38 131 145
339 336 336 337 339 338 340 339 333 329 323 318 321 323 324 330 309 332 35 333 331 331 303 292 275 221 230 228 205 222 226 238 241 242 231 217 226 214 220 218 176 151 115 129 145
342 334 333 329 330 330 332 333 330 327 321 314 314 315 320 318 283 5 12 341 337 321 292 288 282 270 245 228 210 216 242 233 259 287 315 296 223 244 228 213 201 181 145 148 154
348 336 328 325 322 322 323 323 320 321 319 315 314 313 315 298 356 25 352 337 337 304 289 286 261 236 245 221 205 235 230 264 227 243 277 253 286 243 237 274 323 175 156 157 160
353 340 332 325 318 315 315 313 313 313 314 311 308 314 302 304 20 6 333 345 306 296 312 298 274 255 252 248 226 234 251 244 235 236 269 268 262 253 246 243 304 128 157 168 164
354 344 334 326 320 313 310 307 307 308 309 308 298 306 283 315 340 357 331 310 333 308 335 332 343 324 289 254 244 274 194 247 259 222 248 264 252 242 245 255 212 182 165 171 168
354 344 333 327 322 316 309 304 301 304 305 303 276 262 272 330 359 351 324 329 332 328 304 110 358 252 342 262 226 236 204 234 255 233 227 245 252 242 249 229 219 191 172 173 176
352 345 335 326 322 319 311 304 299 300 298 285 229 246 291 79 341 314 318 303 2 307 304 234 196 259 253 290 235 204 211 227 253 222 216 227 247 220 227 230 228 196 181 179 175
352 347 339 329 324 318 312 305 294 287 246 163 205 262 291 148 279 46 314 325 334 257 270 228 252 255 145 221 301 221 235 205 246 203 208 214 239 244 206 216 232 193 197 183 180
353 350 341 330 327 321 316 306 103 162 180 204 259 246 156 341 338 202 218 303 304 284 240 230 239 255 221 216 264 194 232 220 228 193 212 220 241 175 190 234 224 199 200 177 185
349 349 341 332 327 324 320 241 219 190 205 275 320 291 324 349 214 203 215 270 247 249 287 269 283 261 285 323 335 228 258 264 258 192 223 223 229 241 212 219 239 224 197 178 192
345 344 340 332 327 322 289 352 36 356 298 220 274 274 275 284 287 211 209 259 252 309 317 275 266 289 303 269 247 252 276 260 257 249 220 234 227 238 231 256 223 218 176 176 151
341 343 340 330 326 329 18 26 334 303 262 189 221 278 293 216 290 312 201 312 286 292 327 299 312 275 251 255 237 239 252 272 284 201 232 254 227 226 242 234 221 186 172 169 162
339 341 338 328 300 349 51 352 319 314 274 175 180 147 189 260 244 98 209 296 257 299 326 294 85 267 276 265 230 287 330 271 268 253 238 206 230 220 227 210 210 184 170 158 144
339 339 334 1 326 352 347 328 322 258 330 154 160 97 215 244 331 153 163 214 277 306 271 52 224 226 240 270 253 305 333 282 257 261 300 203 247 234 207 202 214 187 185 172 162
338 336 321 255 220 35 321 309 264 272 263 320 272 269 267 197 212 249 226 217 279 291 248 282 345 253 304 240 240 313 291 241 242 254 242 225 212 276 188 215 205 191 186 170 153
337 334 311 293 356 322 294 238 309 251 98 285 299 300 305 257 262 235 261 245 283 307 270 192 226 179 266 267 208 245 48 257 227 196 301 140 199 252 164 207 220 187 185 175 179
333 326 301 325 282 257 238 221 264 337 275 72 285 289 262 329 202 267 269 269 193 254 292 292 248 200 159 230 328 233 233 288 314 327 174 169 222 238 119 123 23 136 175 172 173
325 287 254 166 278 266 257 284 279 348 1 311 282 271 224 228 284 289 236 292 352 323 298 320 204 147 230 265 239 140 237 343 298 229 265 183 217 155 166 165 174 177 172 171 176
324 299 225 1 290 256 267 240 231 153 182 277 279 246 300 334 280 265 275 109 166 212 309 7 292 172 98 292 235 253 355 267 227 291 299 191 235 212 202 181 170 174 179 164 147
284 301 88 154 260 240 237 243 233 185 179 196 292 283 259 301 273 289 296 143 180 169 234 295 239 138 202 211 294 202 239 231 296 260 300 311 150 99 180 168 183 173 162 154 154
299 263 112 185 261 227 238 214 148 194 181 200 233 258 255 266 268 263 265 282 132 236 246 122 301 274 244 113 234 267 282 300 271 274 253 296 284 82 141 156 151 148 146 149 146
293 278 123 228 247 225 214 246 235 195 208 182 212 216 200 247 259 236 261 107 178 258 318 128 223 292 189 190 186 249 223 253 275 286 271 279 318 157 149 164 150 149 146 142 138
292 285 187 213 269 280 261 252 232 207 230 220 230 188 192 230 227 260 242 180 179 218 70 297 268 254 272 327 316 251 234 227 235 254 278 250 293 162 179 169 162 155 155 150 149
233 271 13 252 244 253 266 287 224 209 223 208 218 225 200 228 212 234 222 211 196 163 189 240 273 284 273 274 264 267 268 235 220 238 264 334 321 345 180 177 165 159 152 148 146
285 313 298 281 286 274 251 253 262 255 190 222 233 224 221 230 226 222 212 208 202 174 211 186 269 302 286 6 254 261 259 250 244 247 261 276 286 239 148 152 156 158 155 154 152
9 351 298 276 272 270 257 254 266 280 239 248 234 251 226 238 255 283 271 8 246 179 194 205 247 271 271 339 307 273 292 228 229 241 233 250 303 151 163 168 171 166 166 158 154